Regional Weather Roundup
Issued by NWS

Home | Current Version | Previous Version | Text Only | Print | Product List | Glossary Off
Versions: 1 2 3 4 5 6 7 8 9 10 11 12 13 14 15 16 17 18 19 20 21 22 23 24 25 26 27 28 29 30 31 32 33 34 35 36 37 38 39 40 41 42 43 44 45 46 47 48 49 50

000
ASUS43 KLMK 301702
RWRKY
KENTUCKY REGIONAL WEATHER ROUNDUP
NATIONAL WEATHER SERVICE LOUISVILLE KY
100 PM EDT FRI SEP 30 2016

NOTE "FAIR" INDICATES FEW OR NO CLOUDS BELOW 12,000 FEET
WITH NO SIGNIFICANT WEATHER AND/OR OBSTRUCTIONS TO VISIBILITY.

KYZ001>023-026-027-061>063-070>075-301800-
WESTERN AND SOUTH CENTRAL KENTUCKY

CITY           SKY/WX    TMP DP  RH WIND       PRES   REMARKS
PADUCAH        LGT RAIN  63  58  83 W8        30.06S
HENDERSON      PTSUNNY   64  55  72 NW3       30.02F
OWENSBORO      NOT AVBL
HOPKINSVILLE   DRIZZLE   62  58  84 W10       30.05S
BOWLING GREEN  CLOUDY    60  55  83 SW5       30.05S
GLASGOW        DRIZZLE   54  54 100 S5        30.06S
$$

KYZ024-025-028>034-038-045-046-053-301800-
NORTH CENTRAL KENTUCKY

CITY           SKY/WX    TMP DP  RH WIND       PRES   REMARKS
LOUISVILLE/SDF LGT RAIN  59  52  77 NE3       30.05S
LOUISVILLE/LOU RAIN      58  53  84 CALM      30.05F
FORT KNOX      LGT RAIN  57  54  88 SE6       30.03S
$$

KYZ035>037-039>044-047>052-055>060-089>105-301800-
NORTHEAST KENTUCKY

CITY           SKY/WX    TMP DP  RH WIND       PRES   REMARKS
LEXINGTON      PTSUNNY   61  52  72 SW7       30.05F
COVINGTON      CLOUDY    63  57  81 VRB3      30.03S
FRANKFORT      PTSUNNY   62  53  72 SW7       30.04S
$$

KYZ054-064>069-076>088-106>120-301800-
SOUTHEAST KENTUCKY

CITY           SKY/WX    TMP DP  RH WIND       PRES   REMARKS
JACKSON        CLOUDY    57  51  80 CALM      30.06R
LONDON         CLOUDY    54  48  80 W3        30.08R
SOMERSET       PTSUNNY   55  50  82 SE7       30.08S
MIDDLESBORO    CLOUDY    66  49  55 SE3       30.05F
MONTICELLO     PTSUNNY   63  50  62 S10G16    30.08S
$$





USA.gov is the U.S. government's official web portal to all federal, state and local government web resources and services.